Marion, OH

12:38 PM EST on December 05, 2019 (GMT -0500)
Marion Municipal

Weather History for KMNN - November, 2019

Change the Weather History Date:

Thursday, November 14, 2019

  Actual Average (KDLZ) Record (KDLZ)
Temperature  
Mean Temperature 30 °F -  
Max Temperature 36 °F 49 °F 71 °F (1989)
Min Temperature 25 °F 30 °F 12 °F (1986)
Degree Days  
Heating Degree Days 34    
Moisture  
Dew Point 21 °F    
Average Humidity 69    
Maximum Humidity 81    
Minimum Humidity 59    
Precipitation  
Precipitation 0.00 in - - ()
Sea Level Pressure  
Sea Level Pressure 30.25 in    
Wind  
Wind Speed 9 mph (SW)    
Max Wind Speed 12 mph    
Max Gust Speed -    
Visibility 9 miles    
Events      
Averages and records for this station are not official NWS values.
T = Trace of Precipitation, MM = Missing Value Source: NWS Daily Summary

Daily Weather History Graph

Daily Weather History Graph

Search for Another Location

Airport or City:

Astronomy

Nov. 14, 2019 Rise Set
Actual Time 7:17 AM EST 5:15 PM EST
Civil Twilight 6:48 AM EST 5:44 PM EST
Nautical Twilight 6:15 AM EST 6:17 PM EST
Astronomical Twilight 5:42 AM EST 6:49 PM EST
Moon 7:00 PM EST (11/14) 9:12 AM EST (11/14)
Length of Visible Light 10h 56m
Length of Day
9h 58m
Waning Gibbous, 95% of the Moon is Illuminated
Nov 14
Waning Gibbous
Nov 19
Last Quarter
Nov 26
New
Dec 4
First Quarter
Dec 12
Full

Hourly Weather History & Observations

Time (EST) Temp. Windchill Dew Point Humidity Pressure Visibility Wind Dir Wind Speed Gust Speed Precip Events Conditions
12:53 AM 27.0 °F 16.7 °F 17.1 °F 66% 30.20 in 10.0 mi South 11.5 mph - N/A   Overcast
1:53 AM 28.0 °F 18.6 °F 17.1 °F 63% 30.21 in 10.0 mi SSW 10.4 mph - N/A   Overcast
2:53 AM 27.0 °F 16.7 °F 17.1 °F 66% 30.20 in 10.0 mi South 11.5 mph - N/A   Overcast
3:53 AM 27.0 °F 18.0 °F 18.0 °F 69% 30.20 in 10.0 mi SSW 9.2 mph - N/A   Overcast
4:53 AM 27.0 °F 18.7 °F 19.0 °F 72% 30.20 in 10.0 mi South 8.1 mph - N/A   Overcast
5:53 AM 27.0 °F 18.7 °F 19.0 °F 72% 30.21 in 10.0 mi SSW 8.1 mph - N/A   Overcast
6:53 AM 27.0 °F 17.3 °F 19.9 °F 75% 30.21 in 10.0 mi SSW 10.4 mph - N/A   Overcast
7:53 AM 28.0 °F 20.0 °F 21.0 °F 75% 30.23 in 10.0 mi SSW 8.1 mph - N/A   Overcast
8:53 AM 28.9 °F 20.4 °F 21.9 °F 75% 30.25 in 10.0 mi SSW 9.2 mph - N/A   Overcast
9:53 AM 30.0 °F 21.1 °F 23.0 °F 75% 30.25 in 10.0 mi SW 10.4 mph - N/A   Overcast
10:53 AM 32.0 °F 24.8 °F 21.9 °F 66% 30.26 in 9.0 mi SW 8.1 mph - N/A   Mostly Cloudy
11:53 AM 34.0 °F 27.2 °F 23.0 °F 64% 30.25 in 9.0 mi SW 8.1 mph - N/A   Mostly Cloudy
12:53 PM 34.0 °F 26.0 °F 23.0 °F 64% 30.24 in 9.0 mi SSW 10.4 mph - N/A   Clear
1:53 PM 35.1 °F 27.4 °F 23.0 °F 61% 30.24 in 9.0 mi SW 10.4 mph - N/A   Overcast
2:53 PM 36.0 °F 29.0 °F 24.1 °F 62% 30.24 in 9.0 mi SW 9.2 mph - N/A   Overcast
3:53 PM 36.0 °F 29.6 °F 23.0 °F 59% 30.26 in 9.0 mi SW 8.1 mph - N/A   Scattered Clouds
4:53 PM 35.1 °F 27.4 °F 23.0 °F 61% 30.27 in 10.0 mi SW 10.4 mph - N/A   Clear
5:53 PM 35.1 °F 30.1 °F 23.0 °F 61% 30.29 in 10.0 mi WSW 5.8 mph - N/A   Overcast
6:53 PM 33.1 °F 28.7 °F 23.0 °F 66% 30.30 in 10.0 mi West 4.6 mph - N/A   Partly Cloudy
7:53 PM 30.9 °F 27.5 °F 23.0 °F 72% 30.31 in 6.0 mi WSW 3.5 mph - N/A   Haze
8:53 PM 30.0 °F 26.5 °F 23.0 °F 75% 30.31 in 8.0 mi WSW 3.5 mph - N/A   Clear
9:53 PM 28.0 °F 24.2 °F 21.9 °F 78% 30.32 in 8.0 mi SW 3.5 mph - N/A   Clear
10:53 PM 25.0 °F 19.3 °F 19.9 °F 81% 30.32 in 7.0 mi SSW 4.6 mph - N/A   Clear
11:53 PM 26.1 °F 19.4 °F 21.0 °F 81% 30.31 in 7.0 mi SW 5.8 mph - N/A   Clear